Location: Unspecified
(41.5000°N, 0.0000°E)
Time: 18:45:27
(UTC+00:00)

Courier 1B Rocket - Pass Details

Date: 01 July 2019
Orbit: 920 x 1202 km, 28.3° (Epoch: 24 August)

Event Time Altitude Azimuth Distance (km) Brightness Sun altitude
Rises 05:54:08 0° 255° (WSW) 3,899 7.5 13.4°
Reaches altitude 10° 05:59:31 10° 222° (SW) 2,856 7.0 14.3°
Maximum altitude 06:01:19 11° 207° (SSW) 2,748 7.0 14.6°
Drops below altitude 10° 06:03:05 10° 192° (SSW) 2,799 7.2 15.0°
Sets 06:08:10 0° 158° (SSE) 3,670 8.1 15.9°
